Find Kosmos-2351

NORAD ID: 25327 Int'l Des: 1998-027 Owner: PVO Country: RU operational
MEOELLIPTICALHEO_ELLIPTICALSEMI_SYNCMOLNIYA

Aktuelle Ansicht

3D-Globus wird geladen...

Über Kosmos-2351

Beschreibung wird geladen...

Nächste Überflüge

Passes for default location (London). Set your location on the main map for personalized predictions.

Höhenverlauf

Loading altitude history...

Zweizeiliger Elementsatz

1 25327U 98027A 26149.30796475 .00000901 00000-0 00000+0 0 9997
2 25327 63.7144 121.3220 7050381 180.1422 179.6558 2.00495038205581
Epoch: 29. Mai 2026 • Age: 28 hours

Aktueller Status

Höhe 21747.1 km
Geschwindigkeit 3.65 km/s
Subsatellitenpunkt 36.80°N, 82.26°E
Startdatum 7. Mai 1998
Alter 28 years
Typ other

Technische Details

Klassifizierung Payload
Masse 1250.00 kg
Trockenmasse 1150.00 kg
Gesamtmasse 1250.00 kg
Länge 4.00 m
Durchmesser 2.00 m
Spannweite 5.00 m
Form Cyl + 2 Pan
Hersteller NPOL/KOMET
Bus-Typ Oko
Phasenstatus In Orbit
Besitzer/Staat PVO/RU

Most Searched